Weather Roundup
Issued by NWS

Home | Current Version | Previous Version | Graphics & Text | Print | Product List | Glossary Off
Versions: 1 2 3 4 5 6 7 8 9 10 11 12 13 14 15 16 17 18 19 20 21 22 23 24 25 26 27 28 29 30 31 32 33 34 35 36 37 38 39 40 41 42 43 44 45 46 47 48 49 50

979
NZUS93 KARX 060110
HRRWXR

CURRENT HOURLY OBSERVATIONS ACROSS
MUCH OF THE UPPER MISSISSIPPI VALLEY
NATIONAL WEATHER SERVICE LA CROSSE WI
700 PM CST FRI FEB 05 2016


...SOUTHEAST MINNESOTA...


CITY           SKY/WX    TMP DP  RH WIND       PRES   REMARKS
ROCHESTER      CLOUDY    20  14  77 S14       30.23S WCI   7
ROCHESTER/MAYO CLOUDY    22  16  78 S8        30.24S WCI  13
WINONA         CLOUDY    25  14  63 CALM      30.29S
AUSTIN         CLOUDY    21  18  86 S9        30.23S WCI  11
ALBERT LEA     CLOUDY    23  18  80 S10       30.22S WCI  12
DODGE CENTER   CLOUDY    21  18  86 S14       30.21S WCI   8
PRESTON        CLOUDY    19  14  79 S8        30.24F WCI   9
OWATONNA       CLOUDY    25  18  74 S13       30.20F WCI  13
FARIBAULT      FLURRIES  25  19  80 S8        30.21S WCI  16
$$

...ELSEWHERE IN MINNESOTA...


CITY           SKY/WX    TMP DP  RH WIND       PRES   REMARKS
MINNEAPOLIS    CLOUDY    25  19  78 S12       30.21S WCI  14
INTNL FALLS    CLOUDY    23  15  71 W6        30.06F WCI  16
DULUTH         CLOUDY    24  13  62 SW14      30.09S WCI  12
RED WING       FLURRIES  25  18  74 S6        30.23F WCI  18
REDWOOD FALLS  CLOUDY    26  23  88 SW7       30.18S WCI  18
MANKATO        CLOUDY    25  19  80 SW9       30.21R WCI  15
WORTHINGTON    CLOUDY    27  21  80 SW13      30.18S WCI  16
FAIRMONT       CLOUDY    25  19  80 S15       30.18S WCI  12
$$

...SOUTHWEST WISCONSIN...


CITY           SKY/WX    TMP DP  RH WIND       PRES   REMARKS
LA CROSSE      CLOUDY    25  14  63 S8        30.29S WCI  16
PRAIRIE DU CHI CLOUDY    26  15  61 CALM      30.32S
BOSCOBEL       CLOUDY    27  18  69 SW3       30.32S
LONE ROCK      CLOUDY    22  15  75 CALM      30.32S
PLATTEVILLE    CLOUDY    26  20  78 S3        30.30F
FORT MC COY    CLOUDY    18  14  86 CALM      30.30S
CAMP DOUGLAS   CLOUDY    18  18  99 CALM      30.27F
VIROQUA        CLOUDY    22  14  71 S7        30.26S WCI  13
WIS DELLS      CLOUDY    25  17  70 SW5       30.29S WCI  19
$$

...ELSEWHERE IN WISCONSIN...


CITY           SKY/WX    TMP DP  RH WIND       PRES   REMARKS
MILWAUKEE      CLOUDY    30  14  51 W6        30.32F WCI  24
MADISON        CLOUDY    27  15  61 VRB3      30.30F
GREEN BAY      CLOUDY    21  15  78 S6        30.29F WCI  13
EAU CLAIRE     CLOUDY    22  12  65 S7        30.22F WCI  13
BLACK RVR FLS  MOCLDY    12  12  97 S3        30.27F
MEDFORD        CLEAR     16  10  77 S8        30.18F WCI   5
WAUSAU         CLOUDY    22  12  65 SW5       30.21F WCI  16
WIS RAPIDS     CLOUDY    21  13  71 S6        30.27F WCI  13
MARSHFIELD     CLEAR     21  11  65 S9        30.22F WCI  11
RICE LAKE      CLOUDY    19  12  74 SE5       30.21F WCI  12
$$

...NORTHEAST IOWA...


CITY           SKY/WX    TMP DP  RH WIND       PRES   REMARKS
WATERLOO       CLOUDY    24  18  77 S5        30.29S WCI  18
DUBUQUE        CLOUDY    26  20  77 S7        30.31S WCI  18
DECORAH        MIX PCPN  21  16  79 S5        30.27F WCI  15
MASON CITY     CLOUDY    22  19  89 S12       30.25S WCI  10
CHARLES CITY   CLOUDY    23  21  93 S10       30.27S WCI  12
OELWEIN        MIX PCPN  23  21  93 SE9       30.29F WCI  13
$$

...ELSEWHERE IN IOWA...


CITY           SKY/WX    TMP DP  RH WIND       PRES   REMARKS
DES MOINES     FLURRIES  30  23  75 S8        30.30R WCI  22
IOWA CITY      CLOUDY    28  22  78 S6        30.35F WCI  22
FORT DODGE     CLOUDY    27  21  80 S9        30.25S WCI  17
MARSHALLTOWN   LGT SNOW  25  22  88 S9        30.28S FOG     WCI  15
CEDAR RAPIDS   CLOUDY    28  22  78 SE9       30.30F WCI  19
$$

...NORTHERN ILLINOIS...


CITY           SKY/WX    TMP DP  RH WIND       PRES   REMARKS
CHICAGO-OHARE  CLOUDY    30  21  69 SW5       30.33F WCI  25
CHICAGO-MIDWAY CLOUDY    31  19  61 W3        30.34F
MOLINE         CLOUDY    30  21  69 SE3       30.34F
ROCKFORD       CLOUDY    29  19  66 SW6       30.36R WCI  23
PEORIA         CLEAR     27  19  72 E3        30.38F
$$

NOTE: "FAIR" INDICATES FEW OR NO CLOUDS BELOW 12,000 FEET WITH NO
SIGNIFICANT WEATHER AND/OR OBSTRUCTIONS TO VISIBILITY. WIND
SPEEDS ARE IN MILES-PER-HOUR.




USA.gov is the U.S. government's official web portal to all federal, state and local government web resources and services.